Погода в Братске

Погода в Братске : погода сейчас, прогноз погоды и архив. Всё, что Вы хотите узнать о погоде в Братске!

Поиск расширенной информации на нашем сайте:

Другие новости

Новости СМИ2

Главная страница сайта

Новости сайта

03.07.2017

Напоминаем, что на нашем специализированном сайте Метеоцентр.Азия вы можете получить высокодетализированные автоматические прогнозы погоды по пунктам России, СНГ и мира в авиационном формате (включающие направление и скорость ветра, видимость, явления погоды, количество и форму облачности, нижнюю и верхнюю границу облачности).


Погода в Братске - сегодня

Время (UTC), дата Ветер
(°,м/с) 
Видим.   Явления Облачность Т
(°С)
Тd
(°С)
f(%) Тe
(°С)
Pmin
(гПа)
dP
(гПа)
Po
(мм)
O2
(г/м3)
Тmin Tmax R s Состояние
почвы
21 20.11.17 290 (З) н/о  {ливн. осадки}  10/10 1000 м кучево-дожд. 
[Cb cap]
-10.3 -13.6 77 -12  1024.1  0.2  728  306           
00 21.11.17 290 (З) н/о  {ливн. осадки}  10/3 1000 м кучево-дожд., средняя, верхняя 
[Cb cap|Ac trans|Ci fib]
-12.1 -15.8 74 -14  1026  1.4  729  309  -12.1    0.2  16  равномерный
сухой снег
100% 
03 21.11.17 300 (СЗ) 10 км  слаб. ливневой снег  10/6 600 м кучево-дожд., верхняя 
[Cb cap|Ci sp]
-14 -17.3 76 -16  1028.6  2.1  731  312  -14         
06 21.11.17 320 (СЗ) 20000 м  {ливн. осадки}  6/3 600 м верхняя 
[Sc diur, vesp|Ci fib]
-14.2 -20.2 60 -18  1030.8  732  313           
09 21.11.17 010 (С) 20000 м    6/3 600 м верхняя 
[Sc diur, vesp|Ci fib]
-15.7 -19.4 73 -16  1032.6  1.4  733  315           
12 21.11.17 020 (С) н/о    10/0 верхняя 
[Ci sp]
-16.2 -18.6 82 -16  1033.4  0.6  734  316    -12.1  0.2     
15 21.11.17 340 (С) н/о  слаб. ливневой снег  10/10 1000 м кучево-дожд. 
[Cb cap]
-15.4 -17.1 87 -15  1032.3  -0.8  733  314           
18 21.11.17 050 (СВ) н/о  слаб. ливневой снег  10/10 1000 м кучево-дожд. 
[Cb cap]
-14.7 -16 90 -15  1030.9  -1.2  732  313           
21 21.11.17 050 (СВ) н/о  ливневой снег  10/10 600 м кучево-дожд. 
[Cb cap]
-14.1 -15.4 90 -18  1029  -1.7  731  312           
00 22.11.17 020 (С) н/о  ливневой снег  10/10 600 м кучево-дожд. 
[Cb cap]
-13.3 -14.6 90 -15  1027.4  -1.3  730  310  -16.3    15  равномерный
сухой снег
100% 
03 22.11.17 030 (СВ) 2000 м  слаб. снег{ливн. осадки}  10/1 300 м средняя 
[St|As trans]
-12.6 -13.2 95 -13  1025.5  -1.7  728  309           
06 22.11.17 040 (СВ) 2000 м  слаб. снег{ливн. осадки}  10/0 средняя, верхняя 
[As trans|Cs]
-10.6 -11.9 90 -12  1023.8  -1.2  728  306           
09 22.11.17 040 (СВ) 10 км  слаб. снег  10/0 средняя, верхняя 
[As op|Cs]
-10.8 -11.9 92 -11  1024.5  0.6  728  306           
12 22.11.17 360 (С) н/о  слаб. снег  10/3 600 м средняя 
[St|As op]
-11.6 -12.8 91 -11  1026.4  1.7  729  308    -10.3     
15 22.11.17 310 (СЗ) н/о  слаб. снег  10/0 средняя 
[As op]
-13 -14.3 90 -13  1028.6  1.7  731  310           
18 22.11.17 320 (СЗ) н/о  слаб. снег  9/0 средняя 
[Ac As]
-15.6 -17.2 87 -16  1030.8  1.6  732  314           
21 22.11.17 320 (СЗ) н/о  {снег}  6/0 средняя, верхняя 
[Ac trans|Ci fib]
-19.4 -21.2 86 -20  1032.8  1.1  733  319           
00 23.11.17 350 (С) н/о  местами туман поземный{снег}  10/0 верхняя 
[Ci ing]
-20.5 -22.4 85 -21  1033.7  0.6  733  321  -21    0.6  18  равномерный
сухой снег
100% 
03 23.11.17 340 (С) 1000 м  местами туман поземный  10/10 600 м 
[St]
-20.2 -22.3 83 -20  1034.5  0.8  734  321  -22.3         
06 23.11.17 360 (С) 1000 м  слаб. снег  10/3 300 м средняя 
[St|As op]
-18.3 -20.3 84 -21  1033.8  -0.2  734  318           
09 23.11.17 040 (СВ) 1000 м  слаб. снег  10/10 300 м 
[St]
-17.2 -18.7 88 -17  1033.6  0.1  734  317           
12 23.11.17 040 (СВ) н/о  слаб. снег  10/10 600 м 
[St]
-17.2 -18.7 88 -17  1032.9  -0.7  733  317    -16.8  0.0     
15 23.11.17 040 (СВ) н/о  слаб. снег  10/10 600 м 
[St]
-18.5 -20.2 86 -19  1031.9  -1.2  732  318           
18 23.11.17 050 (СВ) н/о  слаб. снег  10/10 300 м 
[St]
-20.3 -22.2 85 -21  1031.8  -0.6  732  320           
21 23.11.17 040 (СВ) н/о  слаб. снег  10/10 300 м 
[St]
-21.2 -23.2 84 -24  1031.4  -0.5  731  321           
Время (UTC), дата Ветер
(°,м/с) 
Видим.   Явления Облачность Т
(°С)
Тd
(°С)
f(%) Тe
(°С)
Pmin
(гПа)
dP
(гПа)
Po
(мм)
O2
(г/м3)
Тmin Tmax R s Состояние
почвы

Для получения пояснительной информации подведите курсор к названию столбца.

ПОГОДА в Братске - архив

Всё, что Вы хотите узнать о погоде в Братске - удобно и подробно!

Выберите нужную дату (начиная с 1 января 2015* года) и нажмите кнопку "Найти".
Будут отображены архивные сводки погоды по пункту Братск, начиная с указанной даты.


Отображать данные в формате CSV (для использования в таблицах Excel)


Внимание! Наш архив погоды предназначен исключительно для личного некоммерческого использования в познавательных целях. Если Вам необходимы официальные справки о состоянии погоды (для производственных, юридических, коммерческих и т.п. целей), обращайтесь в органы Росгидромета.

*Примечание: данная дата относится к архиву по метеостанциям СССР (Россия, СНГ, Балтия).
Архив по метеостанциям Зарубежной Европы и Азии (кроме Китая) хранится 10 дней, по другим регионам земного шара (Китай, Африка, Америка, Австралия, Океания) - 1 день.

Братск - район местоположения метеостанции


Название, широта, долгота, высота метеостанции:
Братск (город) 56.3°ш. 101.8°д. 416 м над ур. моря [Российская Федерация]

Дополнительная информация

В oтличие oт бoльшинства пoгoдных сайтoв мы публикуем пoдрoбную метеoинфoрмацию в детальнoм прoфессиoнальнoм фoрмате.

Характеристики температуры и влажнoсти вoздуха измеряются на высoте 2 м в тени вдали oт зданий и деревьев.
Скoрoсть ветра измеряется на высoте 10 м (на урoвне рoста челoвека скoрoсть ветра ниже в 1.5-2 раза). Если метеoстанция нахoдится в гoрoде или в лесу, тo скoрoсть ветра занижена на 2-4 м/с пo сравнению с oткрытым местoм. Скoрoсть ветра над акватoриями крупных рек и oзёр, а также на вершинах хoлмoв на 2-5 м/с выше, чем в oбычных услoвиях.
Атмoсфернoе давление в разных тoчках местнoсти мoжет значительнo oтличаться oт давления на метеoстанции, в зависимoсти oт услoвий рельефа (при пoдъёме на 10 м давление пoнижается примернo на 1 мм рт.ст.).